Location: Aalsum
(53.3404°N, 6.0062°E)
Time: 04:12:05
(UTC+00:00)

USA 281 - Pass Details

Date: 28 January 2023
Orbit: 1079 x 1080 km, 106.0° (Epoch: 19 March)

Event Time Altitude Azimuth Distance (km) Brightness Sun altitude
Rises 16:48:33 0° 27° (NNE) 3,892 5.7 -5.9°
Reaches altitude 10° 16:51:05 10° 27° (NNE) 2,933 5.1 -6.2°
Maximum altitude 16:57:39 77° 303° (WNW) 1,113 3.4 -7.1°
Drops below altitude 10° 17:04:12 10° 218° (SW) 2,917 6.5 -8.0°
Sets 17:06:42 0° 217° (SW) 3,869 7.2 -8.4°
